Simultaneous Nadir Overpasses (SNOs) Predictions

Prediction of SNOs between FY3D and NOAA-19 Satellite Orbit:

Table of predicted SNOs for the next 14.0 days since TLE Epoch: 12/14/2019
Index Date (FY3D) Time (FY3D) Lat,Lon (FY3D) SZA (FY3D ) Date (NOAA-19) Time (NOAA-19) Lat,Lon (NOAA-19) SZA (NOAA-19 ) Distance(km) Time Diff (sec)
1 12/19/2019 22:22:56 -79.74, -11.07 75.18 12/19/2019 22:21:44 -79.75, -11.15 75.14 1.76 72
2 12/19/2019 23:13:41 79.74, 156.24 104.82 12/19/2019 23:12:48 79.76, 156.14 104.86 2.40 53
3 12/20/2019 00:04:25 -79.74, -36.41 75.19 12/20/2019 00:03:44 -79.77, -36.44 75.14 3.23 41
4 12/20/2019 00:55:11 79.77, 130.62 104.87 12/20/2019 00:54:49 79.75, 130.56 104.87 2.88 22
5 12/20/2019 01:45:55 -79.77, -62.03 75.14 12/20/2019 01:45:45 -79.76, -62.03 75.14 0.76 10
6 12/20/2019 02:36:40 79.77, 105.28 104.87 12/20/2019 02:36:49 79.77, 105.27 104.87 0.29 9
7 12/20/2019 03:27:24 -79.76, -87.37 75.14 12/20/2019 03:27:45 -79.78, -87.32 75.14 1.91 21
8 12/20/2019 04:18:09 79.76, 79.94 104.86 12/20/2019 04:18:49 79.79, 79.98 104.86 2.46 40
9 12/20/2019 05:08:54 -79.79,-112.99 75.09 12/20/2019 05:09:46 -79.77,-112.91 75.14 2.76 52
10 12/20/2019 05:59:39 79.79, 54.32 104.91 12/20/2019 06:00:50 79.78, 54.39 104.87 2.14 71




NCC Satellite Simultaneous Nadir Overpasses (SNOs) Prediction Service
